Weather History for Nouasseur, Morocco

Change the Weather History Date:

Monday, December 10, 2012

  Actual Average Record
Temperature  
Mean Temperature 56 °F -  
Max Temperature 66 °F 62 °F 82 °F (2010)
Min Temperature 46 °F 44 °F 36 °F (2013)
Degree Days  
Heating Degree Days 9    
Growing Degree Days 6 (Base 50)    
Moisture  
Dew Point 52 °F    
Average Humidity 88    
Maximum Humidity 100    
Minimum Humidity 62    
Precipitation  
Precipitation 0.00 in - - ()
Sea Level Pressure  
Sea Level Pressure 30.17 in    
Wind  
Wind Speed 3 mph ()    
Max Wind Speed 8 mph    
Max Gust Speed -    
Visibility 4.0 miles    
Events Fog    
Averages and records for this station are not official NWS values.
T = Trace of Precipitation, MM = Missing Value Source: Averaged Metar Reports

Daily Weather History Graph

Daily Weather History Graph

Search for Another Location

Airport:

Trip Planner

Search our weather history database for the weather conditions in past years. The results will help you decide how hot, cold, wet, or windy it might be!

Date:

Astronomy

Dec. 10, 2012 Rise Set
Actual Time 7:23 AM WET 5:23 PM WET
Civil Twilight 6:56 AM WET 5:50 PM WET
Nautical Twilight 6:25 AM WET 6:21 PM WET
Astronomical Twilight 5:54 AM WET 6:51 PM WET
Moon 3:57 AM WET (12/10) 2:56 PM WET (12/10)
Length of Visible Light 10h 54m
Length of Day
9h 59m
Waning Crescent, 12% of the Moon is Illuminated
Dec 10
Waning Crescent
Dec 13
New
Dec 20
First Quarter
Dec 28
Full
Jan 5
Last Quarter

Hourly Weather History & Observations

Time (WET) Temp. Windchill Dew Point Humidity Pressure Visibility Wind Dir Wind Speed Gust Speed Precip Events Conditions
12:00 AM 54 °F - 53 °F 96% 30.21 in - ESE 3.5 mph - -  
12:00 AM 53.6 °F - 53.6 °F 100% 30.18 in - ESE 3.5 mph - N/A   Unknown
12:30 AM 53.6 °F - 51.8 °F 94% 30.18 in 0.2 mi ESE 3.5 mph - N/A Fog Fog
1:00 AM 51.8 °F - 51.8 °F 100% 30.18 in 0.2 mi Calm Calm - N/A Fog Fog
1:30 AM 51.8 °F - 50.0 °F 94% 30.18 in 0.2 mi Calm Calm - N/A Fog Fog
2:00 AM 51.8 °F - 50.0 °F 94% 30.18 in 0.2 mi SE 3.5 mph - N/A Fog Fog
2:30 AM 50.0 °F - 50.0 °F 100% 30.18 in 0.2 mi Calm Calm - N/A Fog Fog
3:00 AM 49 °F - 48 °F 96% 30.20 in 0 mi SSE 2.3 mph - -   Unknown Precipitation
3:00 AM 50.0 °F - 48.2 °F 94% 30.18 in 0.2 mi SSE 2.3 mph - N/A Fog Fog
3:30 AM 48.2 °F - 48.2 °F 100% 30.18 in 0.3 mi SE 2.3 mph - N/A Fog Fog
4:00 AM 48.2 °F - 48.2 °F 100% 30.18 in 1.2 mi SE 2.3 mph - N/A   Mostly Cloudy
4:30 AM 48.2 °F - 48.2 °F 100% 30.18 in - SE 2.3 mph - N/A   Mostly Cloudy
4:58 AM 48.2 °F - 46.4 °F 93% 30.15 in 2.5 mi SSE 3.5 mph - N/A   Mostly Cloudy
5:00 AM 48.2 °F - 46.4 °F 93% 30.15 in 3.7 mi SSE 3.5 mph - N/A   Mostly Cloudy
5:30 AM 48.2 °F - 46.4 °F 93% 30.18 in 4.3 mi SSE 3.5 mph - N/A   Mostly Cloudy
6:00 AM 47 °F - 46 °F 96% 30.20 in 4 mi Calm Calm - -   Clear
6:00 AM 46.4 °F - 46.4 °F 100% 30.18 in 4.3 mi Calm Calm - N/A   Scattered Clouds
6:30 AM 46.4 °F - 46.4 °F 100% 30.18 in 3.7 mi Calm Calm - N/A   Scattered Clouds
7:00 AM 46.4 °F - 46.4 °F 100% 30.18 in 3.1 mi ESE 1.2 mph - N/A   Scattered Clouds
7:30 AM 46.4 °F 45.2 °F 46.4 °F 100% 30.18 in 3.7 mi SE 3.5 mph - N/A   Scattered Clouds
8:00 AM 46.4 °F 45.2 °F 46.4 °F 100% 30.21 in 5.6 mi SSW 3.5 mph - N/A   Scattered Clouds
8:30 AM 50.0 °F - 50.0 °F 100% 30.21 in 6.2 mi South 3.5 mph - N/A   Scattered Clouds
9:00 AM 52 °F - 52 °F 100% 30.24 in 6 mi South 3.5 mph - -   Scattered Clouds
9:00 AM 51.8 °F - 51.8 °F 100% 30.21 in 6.2 mi South 3.5 mph - N/A   Partly Cloudy
9:30 AM 55.4 °F - 55.4 °F 100% 30.21 in 6.2 mi SSE 2.3 mph - N/A   Partly Cloudy
10:00 AM 57.2 °F - 55.4 °F 94% 30.24 in - South 3.5 mph - N/A   Clear
10:30 AM 59.0 °F - 55.4 °F 88% 30.21 in - SSW 3.5 mph - N/A   Clear
11:00 AM 59.0 °F - 55.4 °F 88% 30.21 in 6.2 mi SW 3.5 mph - N/A   Partly Cloudy
11:30 AM 60.8 °F - 55.4 °F 82% 30.21 in 6.2 mi WSW 3.5 mph - N/A   Partly Cloudy
12:00 PM 62 °F - 56 °F 76% 30.20 in 6 mi SW 2.3 mph - -   Scattered Clouds
12:00 PM 62.6 °F - 57.2 °F 82% 30.18 in 6.2 mi Variable 2.3 mph - N/A   Partly Cloudy
12:30 PM 62.6 °F - 55.4 °F 77% 30.18 in 6.2 mi WSW 3.5 mph - N/A   Partly Cloudy
1:00 PM 64.4 °F - 55.4 °F 73% 30.15 in 6.2 mi West 4.6 mph - N/A   Partly Cloudy
1:30 PM 64.4 °F - 57.2 °F 77% 30.15 in 6.2 mi West 4.6 mph - N/A   Scattered Clouds
2:00 PM 64.4 °F - 55.4 °F 73% 30.15 in 6.2 mi West 5.8 mph - N/A   Scattered Clouds
2:30 PM 66.2 °F - 55.4 °F 68% 30.12 in 6.2 mi West 6.9 mph - N/A   Scattered Clouds
3:00 PM 65 °F - 55 °F 62% 30.13 in 6 mi WNW 5.8 mph - -   Partly Cloudy
3:00 PM 66.2 °F - 55.4 °F 68% 30.12 in 6.2 mi WNW 5.8 mph - N/A   Scattered Clouds
3:30 PM 66.2 °F - 55.4 °F 68% 30.12 in 6.2 mi West 6.9 mph - N/A   Scattered Clouds
4:00 PM 66.2 °F - 55.4 °F 68% 30.12 in 6.2 mi NW 6.9 mph - N/A   Scattered Clouds
4:30 PM 62.6 °F - 55.4 °F 77% 30.12 in 5.6 mi NNW 8.1 mph - N/A   Partly Cloudy
5:00 PM 60.8 °F - 53.6 °F 77% 30.12 in 5.6 mi NNW 8.1 mph - N/A   Partly Cloudy
5:30 PM 59.0 °F - 53.6 °F 82% 30.15 in 6.2 mi NNW 8.1 mph - N/A   Partly Cloudy
6:00 PM 58 °F - 52 °F 74% 30.16 in 6 mi North 4.6 mph - -   Scattered Clouds
6:00 PM 57.2 °F - 51.8 °F 82% 30.15 in 6.2 mi North 4.6 mph - N/A   Partly Cloudy
6:30 PM 59.0 °F - 53.6 °F 82% 30.15 in 5.6 mi NNE 3.5 mph - N/A   Partly Cloudy
7:00 PM 57.2 °F - 51.8 °F 82% 30.15 in 4.3 mi Variable 2.3 mph - N/A   Scattered Clouds
7:30 PM 57.2 °F - 51.8 °F 82% 30.15 in 4.3 mi NNE 3.5 mph - N/A   Scattered Clouds
8:00 PM 55.4 °F - 50.0 °F 82% 30.15 in 3.7 mi Calm Calm - N/A   Scattered Clouds
8:30 PM 55.4 °F - 50.0 °F 82% 30.15 in - NE 3.5 mph - N/A   Scattered Clouds
9:00 PM 56 °F - 51 °F 80% 30.17 in 3 mi NE 3.5 mph - -   Partly Cloudy
9:00 PM 55.4 °F - 51.8 °F 88% 30.15 in 3.1 mi NE 3.5 mph - N/A   Scattered Clouds
9:30 PM 55.4 °F - 51.8 °F 88% 30.15 in 2.8 mi NE 2.3 mph - N/A   Scattered Clouds
9:43 PM 55.4 °F - 51.8 °F 88% 30.15 in 2.5 mi Variable 2.3 mph - N/A   Scattered Clouds
10:00 PM 55.4 °F - 51.8 °F 88% 30.15 in 2.5 mi ENE 3.5 mph - N/A   Scattered Clouds
10:30 PM 53.6 °F - 51.8 °F 94% 30.15 in 1.7 mi East 3.5 mph - N/A   Scattered Clouds
11:00 PM 53.6 °F - 51.8 °F 94% 30.15 in 1.9 mi NE 3.5 mph - N/A   Scattered Clouds
11:30 PM 53.6 °F - 50.0 °F 88% 30.15 in 1.3 mi ENE 3.5 mph - N/A   Scattered Clouds